Chehalis, WA

6:32 PM PDT on June 25, 2017 (GMT -0700)
Chehalis-Centralia

Weather History for KCLS - December, 2013

Change the Weather History Date:

Tuesday, December 17, 2013

  Actual Average (KTDO) Record (KTDO)
Temperature  
Mean Temperature 39 °F -  
Max Temperature 41 °F 45 °F 54 °F (1979)
Min Temperature 37 °F 33 °F 7 °F (1964)
Degree Days  
Heating Degree Days 26    
Moisture  
Dew Point 39 °F    
Average Humidity 97    
Maximum Humidity 100    
Minimum Humidity 87    
Precipitation  
Precipitation 0.00 in - - ()
Sea Level Pressure  
Sea Level Pressure 30.21 in    
Wind  
Wind Speed 5 mph (South)    
Max Wind Speed 9 mph    
Max Gust Speed -    
Visibility 6 miles    
Events Fog    
Averages and records for this station are not official NWS values.
T = Trace of Precipitation, MM = Missing Value Source: NWS Daily Summary

Daily Weather History Graph

Daily Weather History Graph

Search for Another Location

Airport or City:

Trip Planner

Search our weather history database for the weather conditions in past years. The results will help you decide how hot, cold, wet, or windy it might be!

Date:

Astronomy

Dec. 17, 2013 Rise Set
Actual Time 7:51 AM PST 4:25 PM PST
Civil Twilight 7:16 AM PST 5:00 PM PST
Nautical Twilight 6:37 AM PST 5:38 PM PST
Astronomical Twilight 6:00 AM PST 6:15 PM PST
Moon 5:13 PM PST (12/17) 7:48 AM PST (12/17)
Length of Visible Light 9h 44m
Length of Day
8h 33m
Full, 100% of the Moon is Illuminated
Dec 17
Full
Dec 25
Last Quarter
Jan 1
New
Jan 7
First Quarter
Jan 15
Full

Hourly Weather History & Observations

Time (PST) Temp. Windchill Dew Point Humidity Pressure Visibility Wind Dir Wind Speed Gust Speed Precip Events Conditions
12:15 AM 41.0 °F 38.0 °F 41.0 °F 100% 30.28 in 1.2 mi NNE 4.6 mph - N/A   Overcast
12:35 AM 41.0 °F 39.0 °F 41.0 °F 100% 30.28 in 3.0 mi NNE 3.5 mph - N/A   Overcast
12:55 AM 39.2 °F - 39.2 °F 100% 30.27 in 1.2 mi Calm Calm - N/A   Overcast
1:15 AM 39.2 °F 37.0 °F 39.2 °F 100% 30.27 in 2.0 mi NE 3.5 mph - N/A   Overcast
1:35 AM 39.2 °F 37.0 °F 39.2 °F 100% 30.26 in 4.0 mi East 3.5 mph - N/A   Overcast
1:55 AM 39.2 °F 37.0 °F 39.2 °F 100% 30.25 in 3.0 mi SE 3.5 mph - N/A   Overcast
2:15 AM 39.2 °F - 39.2 °F 100% 30.26 in 3.0 mi Calm Calm - N/A   Mist
2:35 AM 39.2 °F 37.0 °F 39.2 °F 100% 30.25 in 5.0 mi South 3.5 mph - N/A   Overcast
2:55 AM 39.2 °F - 39.2 °F 100% 30.25 in 8.0 mi Calm Calm - N/A   Overcast
3:15 AM 39.2 °F - 39.2 °F 100% 30.25 in 4.0 mi Calm Calm - N/A   Mist
3:35 AM 39.2 °F 37.0 °F 39.2 °F 100% 30.24 in 9.0 mi SSE 3.5 mph - N/A   Unknown
3:55 AM 39.2 °F 35.9 °F 39.2 °F 100% 30.23 in 7.0 mi SE 4.6 mph - N/A   Overcast
4:15 AM 39.2 °F - 39.2 °F 100% 30.23 in 10.0 mi Calm Calm - N/A   Overcast
4:35 AM 39.2 °F 37.0 °F 39.2 °F 100% 30.23 in 4.0 mi SSE 3.5 mph - N/A   Overcast
4:55 AM 39.2 °F 35.9 °F 39.2 °F 100% 30.22 in 3.0 mi South 4.6 mph - N/A   Overcast
5:15 AM 39.2 °F 37.0 °F 39.2 °F 100% 30.22 in 7.0 mi SSE 3.5 mph - N/A   Overcast
5:35 AM 39.2 °F 37.0 °F 39.2 °F 100% 30.22 in 2.5 mi SSW 3.5 mph - N/A   Overcast
5:55 AM 39.2 °F - 39.2 °F 100% 30.23 in 3.0 mi Calm Calm - N/A   Overcast
6:15 AM 39.2 °F - 39.2 °F 100% 30.22 in 2.0 mi Calm Calm - N/A   Overcast
6:35 AM 39.2 °F 35.9 °F 39.2 °F 100% 30.22 in 3.0 mi South 4.6 mph - N/A   Overcast
6:55 AM 37.4 °F 34.9 °F 37.4 °F 100% 30.22 in 2.5 mi South 3.5 mph - N/A   Overcast
7:15 AM 37.4 °F 32.1 °F 37.4 °F 100% 30.22 in 2.5 mi South 6.9 mph - N/A   Overcast
7:35 AM 37.4 °F 32.8 °F 37.4 °F 100% 30.22 in 1.8 mi SSW 5.8 mph - N/A   Overcast
7:55 AM 37.4 °F 34.9 °F 37.4 °F 100% 30.23 in 0.5 mi South 3.5 mph - N/A Fog Fog
8:15 AM 37.4 °F 32.1 °F 37.4 °F 100% 30.22 in 0.8 mi SSE 6.9 mph - N/A   Overcast
8:35 AM 37.4 °F 32.8 °F 37.4 °F 100% 30.23 in 2.0 mi SSE 5.8 mph - N/A   Overcast
8:55 AM 37.4 °F 33.8 °F 37.4 °F 100% 30.23 in 3.0 mi South 4.6 mph - N/A   Overcast
9:15 AM 37.4 °F 33.8 °F 37.4 °F 100% 30.23 in 2.5 mi SSE 4.6 mph - N/A   Overcast
9:35 AM 37.4 °F 33.8 °F 37.4 °F 100% 30.24 in 2.0 mi South 4.6 mph - N/A   Overcast
9:55 AM 37.4 °F 34.9 °F 37.4 °F 100% 30.24 in 2.0 mi South 3.5 mph - N/A   Overcast
10:15 AM 37.4 °F 32.8 °F 37.4 °F 100% 30.24 in 3.0 mi South 5.8 mph - N/A   Overcast
10:35 AM 37.4 °F 32.1 °F 37.4 °F 100% 30.24 in 1.8 mi South 6.9 mph - N/A   Overcast
10:55 AM 39.2 °F 35.9 °F 37.4 °F 93% 30.24 in 5.0 mi South 4.6 mph - N/A   Overcast
11:15 AM 39.2 °F 35.0 °F 37.4 °F 93% 30.23 in 8.0 mi SSE 5.8 mph - N/A   Overcast
11:35 AM 39.2 °F 35.0 °F 39.2 °F 100% 30.23 in 10.0 mi South 5.8 mph - N/A   Overcast
11:55 AM 39.2 °F 33.6 °F 37.4 °F 93% 30.22 in 10.0 mi South 8.1 mph - N/A   Overcast
12:15 PM 39.2 °F 33.0 °F 37.4 °F 93% 30.21 in 10.0 mi South 9.2 mph - N/A   Overcast
12:35 PM 39.2 °F 33.6 °F 39.2 °F 100% 30.20 in 10.0 mi South 8.1 mph - N/A   Overcast
12:55 PM 41.0 °F 36.4 °F 37.4 °F 87% 30.20 in 10.0 mi SSE 6.9 mph - N/A   Overcast
1:15 PM 41.0 °F 36.4 °F 37.4 °F 87% 30.20 in 10.0 mi South 6.9 mph - N/A   Overcast
1:35 PM 41.0 °F 35.8 °F 37.4 °F 87% 30.19 in 10.0 mi SSW 8.1 mph - N/A   Overcast
1:55 PM 41.0 °F 38.0 °F 37.4 °F 87% 30.20 in 10.0 mi South 4.6 mph - N/A   Overcast
2:15 PM 41.0 °F 37.1 °F 39.2 °F 93% 30.19 in 10.0 mi South 5.8 mph - N/A   Overcast
2:35 PM 41.0 °F 38.0 °F 39.2 °F 93% 30.19 in 10.0 mi SSW 4.6 mph - N/A   Overcast
2:55 PM 41.0 °F 37.1 °F 39.2 °F 93% 30.19 in 10.0 mi South 5.8 mph - N/A   Overcast
3:15 PM 41.0 °F 35.8 °F 39.2 °F 93% 30.19 in 10.0 mi South 8.1 mph - N/A   Overcast
3:35 PM 41.0 °F 35.8 °F 39.2 °F 93% 30.18 in 10.0 mi South 8.1 mph - N/A   Overcast
3:55 PM 41.0 °F 36.4 °F 39.2 °F 93% 30.18 in 10.0 mi SSW 6.9 mph - N/A   Overcast
4:15 PM 41.0 °F 35.8 °F 39.2 °F 93% 30.18 in 10.0 mi South 8.1 mph - N/A   Overcast
4:35 PM 41.0 °F 35.8 °F 37.4 °F 87% 30.18 in 10.0 mi South 8.1 mph - N/A   Overcast
4:55 PM 41.0 °F 35.8 °F 37.4 °F 87% 30.18 in 10.0 mi South 8.1 mph - N/A   Overcast
5:15 PM 41.0 °F 35.8 °F 37.4 °F 87% 30.18 in 10.0 mi South 8.1 mph - N/A   Overcast
5:35 PM 39.2 °F 33.6 °F 39.2 °F 100% 30.18 in 7.0 mi South 8.1 mph - N/A   Overcast
5:55 PM 39.2 °F 34.2 °F 39.2 °F 100% 30.18 in 10.0 mi South 6.9 mph - N/A   Overcast
6:15 PM 41.0 °F 36.4 °F 39.2 °F 93% 30.18 in 10.0 mi South 6.9 mph - N/A   Overcast
6:35 PM 39.2 °F 33.0 °F 39.2 °F 100% 30.18 in 10.0 mi South 9.2 mph - N/A   Overcast
6:55 PM 39.2 °F 33.6 °F 39.2 °F 100% 30.17 in 10.0 mi South 8.1 mph - N/A   Overcast
7:15 PM 39.2 °F 34.2 °F 39.2 °F 100% 30.17 in 4.0 mi South 6.9 mph - N/A   Overcast
7:35 PM 39.2 °F 34.2 °F 39.2 °F 100% 30.18 in 7.0 mi South 6.9 mph - N/A   Overcast
7:55 PM 39.2 °F 34.2 °F 39.2 °F 100% 30.18 in 4.0 mi South 6.9 mph - N/A   Overcast
8:15 PM 39.2 °F 35.0 °F 39.2 °F 100% 30.19 in 4.0 mi South 5.8 mph - N/A   Overcast
8:35 PM 39.2 °F 33.6 °F 39.2 °F 100% 30.18 in 3.0 mi South 8.1 mph - N/A   Overcast
8:55 PM 39.2 °F 34.2 °F 39.2 °F 100% 30.18 in 3.0 mi South 6.9 mph - N/A   Overcast
9:15 PM 39.2 °F 35.0 °F 39.2 °F 100% 30.18 in 3.0 mi SSW 5.8 mph - N/A   Overcast
9:35 PM 39.2 °F 35.0 °F 39.2 °F 100% 30.18 in 6.0 mi SSW 5.8 mph - N/A   Overcast
9:55 PM 39.2 °F 35.0 °F 39.2 °F 100% 30.18 in 7.0 mi SSW 5.8 mph - N/A   Overcast
10:15 PM 39.2 °F 34.2 °F 39.2 °F 100% 30.18 in 6.0 mi SSW 6.9 mph - N/A   Overcast
10:35 PM 41.0 °F 38.0 °F 39.2 °F 93% 30.18 in 5.0 mi SSW 4.6 mph - N/A   Overcast
10:55 PM 41.0 °F 37.1 °F 39.2 °F 93% 30.18 in 7.0 mi SSW 5.8 mph - N/A   Overcast
11:15 PM 41.0 °F 35.8 °F 39.2 °F 93% 30.18 in 9.0 mi South 8.1 mph - N/A   Overcast
11:35 PM 41.0 °F 35.8 °F 39.2 °F 93% 30.18 in 10.0 mi SSW 8.1 mph - N/A   Overcast
11:55 PM 41.0 °F 35.8 °F 39.2 °F 93% 30.17 in 10.0 mi South 8.1 mph - N/A   Overcast